Regional Weather Roundup
Issued by NWS

Home | Current Version | Previous Version | Text Only | Print | Product List | Glossary Off
Versions: 1 2 3 4 5 6 7 8 9 10 11 12 13 14 15 16 17 18 19 20 21 22 23 24 25 26 27 28 29 30 31 32 33 34 35 36 37 38 39 40 41 42 43 44 45 46 47 48 49 50

703
ASUS43 KBIS 061602
RWRND

NORTH DAKOTA REGIONAL WEATHER ROUNDUP
NATIONAL WEATHER SERVICE BISMARCK ND
1100 AM CDT FRI MAY 06 2016

NOTE: "FAIR" INDICATES FEW OR NO CLOUDS BELOW 12,000 FEET WITH NO
SIGNIFICANT WEATHER AND/OR OBSTRUCTIONS TO VISIBILITY.


NDZ001>003-009>011-017-061700-
NORTHWEST NORTH DAKOTA

CITY           SKY/WX    TMP DP  RH WIND       PRES   REMARKS
WILLISTON      PTSUNNY   59  43  55 N17       30.08R
MINOT          SUNNY     71  41  33 N23G31    29.98R
MINOT AFB      SUNNY     65  44  45 N20G28    29.97R
$$

NDZ018>021-031>035-040>046-061700-
SOUTHWEST NORTH DAKOTA

CITY           SKY/WX    TMP DP  RH WIND       PRES   REMARKS
BISMARCK       SUNNY     71  49  45 N22G29    29.92R
DICKINSON      SUNNY     64  45  49 N20G26    29.99R
GARRISON         N/A     68  46  45 N16G28    29.96R
HETTINGER ARPT MOSUNNY   69  46  43 N26G36    29.97R
$$

NDZ004>008-012>016-024-026-027-054-061700-
NORTHEAST NORTH DAKOTA

CITY           SKY/WX    TMP DP  RH WIND       PRES   REMARKS
GRAND FORKS    CLOUDY    63  43  48 N22G35    29.78S
GRND FRKS AFB  CLOUDY    64  43  45 N21G28    29.80R
DEVILS LAKE    SUNNY     65  43  44 N28G33    29.88R
$$

NDZ022-023-025-028>030-036>039-047>053-061700-
SOUTHEAST NORTH DAKOTA

CITY           SKY/WX    TMP DP  RH WIND       PRES   REMARKS
FARGO          MOSUNNY   81  50  33 NW8       29.75R
JAMESTOWN      SUNNY     76  47  35 N18G26    29.81R
$$





USA.gov is the U.S. government's official web portal to all federal, state and local government web resources and services.